This demonstration page uses our WeatherBlox Daily Observations layout. Learn more.

Left ArrowRight Arrow

34.02893, -84.19858

Hourly Observations for February 17, 2020

Temp ( °F °C ) Dew Point ( °F °C ) Humidity (%) Winds ( mph kmh ) Pressure ( in mb ) Visibility ( mi km ) Precip ( " mm )
12:15 am 00:15 Mostly Cloudy with Mist and Fog 45 7.2 44 6.7 97 97 NNE 3 6 30.13 1020 1 1 0.00 0.00
12:50 am 00:50 Mostly Cloudy with Fog 45 7 45 7 100 100 Calm 30.12 1020 1 1 0.00 0.00
12:53 am 00:53 Mostly Cloudy with Fog 44 6.7 44 6.7 100 100 Calm 30.13 1020 1 1 0.00 0.00
1:53 am 01:53 Mostly Cloudy with Fog 44 6.7 44 6.7 100 100 Calm 30.12 1020 0 0 0.00 0.00
2:53 am 02:53 Mostly Cloudy with Fog 43 6.1 43 6.1 100 100 N 3 6 30.11 1020 0 0 0.00 0.00
3:53 am 03:53 Mostly Cloudy with Fog 42 5.6 42 5.6 100 100 N 3 6 30.11 1020 1 1 0.00 0.00
4:53 am 04:53 Mostly Cloudy with Fog 41 5 41 5 100 100 Calm 30.09 1019 0 0 0.00 0.00
5:53 am 05:53 Mostly Cloudy with Fog 41 5 41 5 100 100 Calm 30.11 1020 0 0 0.00 0.00
6:53 am 06:53 Mostly Cloudy with Fog 40 4.4 40 4.4 100 100 Calm 30.12 1020 0 0 0.00 0.00
7:53 am 07:53 Mostly Cloudy with Fog 40 4.4 40 4.4 100 100 Calm 30.13 1020 N/A 0.00 0.00
8:53 am 08:53 Mostly Cloudy with Mist and Fog 40 4.4 40 4.4 100 100 E 3 6 30.16 1021 1 1 0.00 0.00
9:13 am 09:13 Cloudy with Mist and Fog 41 5 41 5 100 100 SE 3 6 30.17 1022 2 2 0.00 0.00
9:53 am 09:53 Cloudy with Mist and Fog 42 5.6 42 5.6 100 100 Calm 30.18 1022 2 2 0.00 0.00
10:00 am 10:00 Cloudy with Mist and Fog 43 6.1 43 6.1 100 100 VRB 3 6 30.18 1022 3 5 0.00 0.00
10:27 am 10:27 Cloudy 44 6.7 43 6.1 96 96 E 6 9 30.17 1022 8 13 0.00 0.00
10:53 am 10:53 Cloudy 44 6.7 43 6.1 96 96 SE 5 7 30.18 1022 10 16 0.00 0.00
11:35 am 11:35 Cloudy 46 7.8 44 6.7 93 93 E 5 7 30.18 1022 10 16 0.00 0.00
11:53 am 11:53 Cloudy 47 8.3 44 6.7 90 90 ENE 6 9 30.18 1022 10 16 0.00 0.00
12:53 pm 12:53 Cloudy 49 9.4 45 7.2 86 86 E 5 7 30.15 1021 10 16 0.00 0.00
1:53 pm 13:53 Cloudy 50 10 45 7.2 83 83 VRB 3 6 30.13 1020 10 16 0.00 0.00
2:45 pm 14:45 Cloudy 52 11.1 46 7.8 80 80 VRB 5 7 30.12 1020 10 16 0.00 0.00
2:53 pm 14:53 Cloudy 52 11.1 46 7.8 80 80 VRB 5 7 30.13 1020 10 16 0.00 0.00
3:48 pm 15:48 Cloudy 52 11 46 8 82 82 ESE 7 11 30.13 1020 10 16 0.00 0.00
3:53 pm 15:53 Cloudy 51 10.6 46 7.8 83 83 VRB 5 7 30.13 1020 10 16 0.00 0.00
4:43 pm 16:43 Cloudy 52 11.1 47 8.3 83 83 ESE 6 9 30.13 1020 10 16 0.00 0.00
4:53 pm 16:53 Cloudy 52 11.1 47 8.3 83 83 E 6 9 30.13 1020 10 16 0.00 0.00
5:23 pm 17:23 Cloudy 52 11.1 47 8.3 83 83 VRB 6 9 30.13 1020 10 16 0.00 0.00
5:53 pm 17:53 Cloudy 51 10.6 47 8.3 86 86 ESE 6 9 30.14 1021 10 16 0.00 0.00
6:53 pm 18:53 Cloudy 50 10 47 8.3 89 89 ESE 6 9 30.15 1021 10 16 0.00 0.00
7:53 pm 19:53 Cloudy 50 10 47 8.3 89 89 SE 5 7 30.17 1022 10 16 0.00 0.00
8:53 pm 20:53 Cloudy 49 9.4 48 8.9 97 97 E 5 7 30.18 1022 8 13 0.00 0.00
9:53 pm 21:53 Cloudy with Mist and Fog 49 9.4 48 8.9 97 97 VRB 3 6 30.19 1022 3 5 0.00 0.00
10:53 pm 22:53 Cloudy with Mist and Fog 50 10 49 9.4 96 96 VRB 3 6 30.18 1022 4 6 0.00 0.00
11:53 pm 23:53 Cloudy with Mist and Fog 50 10 49 9.4 96 96 E 5 7 30.17 1022 4 6 0.00 0.00

Powered by AerisWeather